GW4110 Weather Reports


time (UTC)temp
C
wind
direction
speed
KPH
gust
KPH
rain 1hr
cm
rain 24hr
cm
rain mn
cm
humidity
%
barometer
mb
20260901175458 21 155 1.6 1.6 0.00 0.00 0.00 53 1017.9
20260901174953 20 269 0.0 0.0 0.00 0.00 0.00 53 1018.1
20260901174449 20 323 1.6 1.6 0.00 0.00 0.00 54 1017.8
20260901173944 20 261 1.6 3.2 0.00 0.00 0.00 54 1017.8
20260901173439 20 278 4.8 6.4 0.00 0.00 0.00 54 1017.8
20260901172936 21 196 3.2 4.8 0.00 0.00 0.00 52 1017.9
20260901172431 21 169 0.0 0.0 0.00 0.00 0.00 52 1017.6
20260901171928 21 164 1.6 4.8 0.00 0.00 0.00 52 1017.6
20260901171427 20 208 1.6 1.6 0.00 0.00 0.00 54 1017.7
20260901170926 20 185 1.6 1.6 0.00 0.00 0.00 53 1017.7
20260901170421 19 161 0.0 0.0 0.00 0.00 0.00 55 1017.5
20260901165915 19 221 3.2 3.2 0.00 0.00 0.00 55 1017.5
20260901165410 19 207 0.0 1.6 0.00 0.00 0.00 56 1017.5
20260901164906 18 236 1.6 1.6 0.00 0.00 0.00 57 1017.4
20260901164401 18 210 1.6 1.6 0.00 0.00 0.00 58 1017.6
20260901163900 18 331 3.2 4.8 0.00 0.00 0.00 57 1017.6
20260901163356 19 179 1.6 1.6 0.00 0.00 0.00 58 1017.5
20260901162850 19 210 0.0 1.6 0.00 0.00 0.00 57 1017.5
20260901162349 19 168 0.0 0.0 0.00 0.00 0.00 57 1017.6
20260901161844 18 192 3.2 3.2 0.00 0.00 0.00 57 1017.4
20260901161338 18 209 0.0 0.0 0.00 0.00 0.00 59 1017.5
20260901160833 18 176 0.0 0.0 0.00 0.00 0.00 60 1017.4
20260901160330 18 211 1.6 3.2 0.00 0.00 0.00 60 1017.4
20260901155829 18 231 1.6 1.6 0.00 0.00 0.00 60 1017.6
20260901155324 18 190 3.2 3.2 0.00 0.00 0.00 60 1017.3
20260901154820 18 157 1.6 3.2 0.00 0.00 0.00 60 1017.5
20260901154314 17 177 1.6 3.2 0.00 0.00 0.00 61 1017.3
20260901153809 17 180 0.0 0.0 0.00 0.00 0.00 61 1017.3
20260901153309 17 237 1.6 3.2 0.00 0.00 0.00 61 1017.2
20260901152808 17 216 1.6 1.6 0.00 0.00 0.00 61 1017.1
20260901152306 17 212 0.0 1.6 0.00 0.00 0.00 62 1016.9
20260901151802 17 210 0.0 0.0 0.00 0.00 0.00 63 1017.0
20260901151302 17 197 0.0 0.0 0.00 0.00 0.00 63 1017.1
20260901150755 17 189 0.0 0.0 0.00 0.00 0.00 63 1016.9
20260901150253 17 191 1.6 1.6 0.00 0.00 0.00 63 1017.0
20260901145751 17 199 0.0 1.6 0.00 0.00 0.00 64 1017.0
20260901145246 17 196 0.0 0.0 0.00 0.00 0.00 65 1016.9
20260901144742 16 198 1.6 3.2 0.00 0.00 0.00 65 1016.8
20260901144237 16 203 0.0 0.0 0.00 0.00 0.00 66 1016.8
20260901143733 16 210 1.6 3.2 0.00 0.00 0.00 66 1016.8
20260901143228 16 195 1.6 1.6 0.00 0.00 0.00 66 1016.6
20260901142725 16 189 1.6 1.6 0.00 0.00 0.00 67 1016.5
20260901142223 16 195 1.6 1.6 0.00 0.00 0.00 67 1016.7
20260901141718 16 233 3.2 4.8 0.00 0.00 0.00 67 1016.4
20260901141213 16 205 0.0 1.6 0.00 0.00 0.00 67 1016.5
20260901140712 16 211 1.6 1.6 0.00 0.00 0.00 67 1016.4
20260901140210 16 191 0.0 0.0 0.00 0.00 0.00 67 1016.2
20260901135705 16 197 1.6 1.6 0.00 0.00 0.00 67 1016.1
20260901135200 16 193 0.0 0.0 0.00 0.00 0.00 68 1016.2
20260901134656 16 185 0.0 1.6 0.00 0.00 0.00 68 1016.1
20260901134151 16 211 0.0 0.0 0.00 0.00 0.00 68 1016.1
20260901133651 16 196 0.0 0.0 0.00 0.00 0.00 68 1016.0
20260901133149 16 190 1.6 3.2 0.00 0.00 0.00 68 1016.0
20260901132644 16 210 1.6 1.6 0.00 0.00 0.00 68 1015.9
20260901132143 16 197 0.0 1.6 0.00 0.00 0.00 68 1015.9
20260901131644 16 158 0.0 0.0 0.00 0.00 0.00 68 1016.0
20260901131138 16 199 0.0 1.6 0.00 0.00 0.00 68 1015.8
20260901130633 16 179 0.0 0.0 0.00 0.00 0.00 68 1015.8
20260901130132 16 183 1.6 1.6 0.00 0.00 0.00 68 1016.0
20260901125630 16 193 1.6 1.6 0.00 0.00 0.00 69 1015.8
20260901125125 16 202 1.6 1.6 0.00 0.00 0.00 69 1015.8
20260901124620 16 201 0.0 0.0 0.00 0.00 0.00 69 1015.8
20260901124114 16 195 1.6 1.6 0.00 0.00 0.00 69 1015.7
20260901123614 16 216 1.6 1.6 0.00 0.00 0.00 70 1015.7
20260901123114 16 194 0.0 0.0 0.00 0.00 0.00 70 1015.9
20260901122612 16 201 1.6 1.6 0.00 0.00 0.00 70 1015.6
20260901122107 16 202 0.0 1.6 0.00 0.00 0.00 70 1015.8
20260901121601 16 233 1.6 3.2 0.00 0.00 0.00 70 1015.7
20260901121056 16 203 1.6 1.6 0.00 0.00 0.00 71 1015.7
20260901120551 16 203 0.0 0.0 0.00 0.00 0.00 71 1015.7
20260901120047 16 197 0.0 0.0 0.00 0.00 0.00 71 1015.7
20260901115541 16 187 0.0 0.0 0.00 0.00 0.00 70 1015.5
20260901115038 16 175 0.0 0.0 0.00 0.00 0.00 70 1015.5
20260901114534 16 163 0.0 1.6 0.00 0.00 0.00 71 1015.7
20260901114033 16 201 0.0 0.0 0.00 0.00 0.00 70 1015.8
20260901113532 16 217 0.0 0.0 0.00 0.00 0.00 69 1015.9
20260901113027 16 208 0.0 0.0 0.00 0.00 0.00 69 1015.9
20260901112521 16 208 0.0 0.0 0.00 0.00 0.00 70 1016.0
20260901112017 16 248 1.6 3.2 0.00 0.00 0.00 72 1016.0
20260901111515 16 211 0.0 0.0 0.00 0.00 0.00 72 1016.0
20260901111014 16 202 0.0 0.0 0.00 0.00 0.00 73 1016.1
20260901110510 16 209 0.0 0.0 0.00 0.00 0.00 72 1016.1
20260901110006 16 208 0.0 0.0 0.00 0.00 0.00 73 1016.2
20260901105501 16 209 0.0 0.0 0.00 0.00 0.00 72 1015.9
20260901105001 16 208 0.0 0.0 0.00 0.00 0.00 72 1015.8
20260901104457 16 195 0.0 0.0 0.00 0.00 0.00 72 1015.9
20260901103952 16 208 0.0 0.0 0.00 0.00 0.00 72 1015.8
20260901103447 16 214 0.0 0.0 0.00 0.00 0.00 72 1015.8
20260901102942 16 210 0.0 0.0 0.00 0.00 0.00 73 1015.8
20260901102437 16 206 0.0 0.0 0.00 0.00 0.00 73 1015.7
20260901101931 16 217 0.0 0.0 0.00 0.00 0.00 73 1015.8
20260901101427 16 232 0.0 0.0 0.00 0.00 0.00 74 1015.6
20260901100926 16 209 0.0 0.0 0.00 0.00 0.00 74 1015.7
20260901100421 16 227 0.0 0.0 0.00 0.00 0.00 74 1015.6
20260901095920 16 213 0.0 0.0 0.00 0.00 0.00 74 1015.3
20260901095419 16 209 0.0 0.0 0.00 0.00 0.00 74 1015.4
20260901094912 16 231 0.0 0.0 0.00 0.00 0.00 74 1015.6
20260901094407 16 205 0.0 0.0 0.00 0.00 0.00 74 1015.4
20260901093901 16 206 0.0 0.0 0.00 0.00 0.00 74 1015.6
20260901093401 15 217 0.0 0.0 0.00 0.00 0.00 74 1015.6
20260901092856 15 209 0.0 0.0 0.00 0.00 0.00 74 1015.4
20260901092351 15 199 0.0 0.0 0.00 0.00 0.00 75 1015.6
20260901091847 15 200 0.0 0.0 0.00 0.00 0.00 74 1015.6
20260901091347 15 196 0.0 0.0 0.00 0.00 0.00 75 1015.5
20260901090842 15 199 0.0 0.0 0.00 0.00 0.00 75 1015.6
20260901090342 15 207 0.0 0.0 0.00 0.00 0.00 76 1015.5
20260901085838 15 207 0.0 0.0 0.00 0.00 0.00 77 1015.6
20260901085333 15 199 0.0 0.0 0.00 0.00 0.00 77 1015.6
20260901084829 14 191 0.0 0.0 0.00 0.00 0.00 77 1015.6
20260901084325 15 194 0.0 0.0 0.00 0.00 0.00 76 1015.6
20260901083820 15 194 0.0 0.0 0.00 0.00 0.00 75 1015.4
20260901083315 15 213 0.0 0.0 0.00 0.00 0.00 75 1015.5
20260901082813 15 203 0.0 0.0 0.00 0.00 0.00 74 1015.5
20260901082309 15 206 0.0 0.0 0.00 0.00 0.00 73 1015.6
20260901081804 16 220 0.0 1.6 0.00 0.00 0.00 73 1015.8
20260901081304 16 226 0.0 0.0 0.00 0.00 0.00 73 1015.5
20260901080759 16 210 0.0 1.6 0.00 0.00 0.00 73 1015.7
20260901080258 16 200 0.0 0.0 0.00 0.00 0.00 73 1015.6
20260901075752 16 193 0.0 0.0 0.00 0.00 0.00 73 1015.6
20260901075247 16 216 1.6 1.6 0.00 0.00 0.00 72 1015.5
20260901074742 16 195 0.0 0.0 0.00 0.00 0.00 72 1015.5
20260901074237 16 281 0.0 1.6 0.00 0.00 0.00 72 1015.6
20260901073733 16 295 1.6 3.2 0.00 0.00 0.00 72 1015.6
20260901073229 16 237 1.6 1.6 0.00 0.00 0.00 72 1015.7
20260901072724 16 202 0.0 1.6 0.00 0.00 0.00 72 1015.8
20260901072218 16 202 0.0 0.0 0.00 0.00 0.00 72 1015.7
20260901071713 16 252 1.6 1.6 0.00 0.00 0.00 72 1015.6
20260901071213 16 213 0.0 1.6 0.00 0.00 0.00 72 1015.8
20260901070706 16 202 0.0 1.6 0.00 0.00 0.00 72 1015.8
20260901070202 16 221 0.0 0.0 0.00 0.00 0.00 72 1015.7
20260901065700 16 172 0.0 0.0 0.00 0.00 0.00 72 1015.8
20260901065155 16 227 1.6 1.6 0.00 0.00 0.00 72 1015.8
20260901064652 16 192 0.0 1.6 0.00 0.00 0.00 72 1015.7
20260901064149 16 203 0.0 0.0 0.00 0.00 0.00 72 1015.9
20260901063646 16 203 1.6 1.6 0.00 0.00 0.00 73 1015.7
20260901063141 16 192 1.6 1.6 0.00 0.00 0.00 73 1015.8
20260901062637 16 240 3.2 3.2 0.00 0.00 0.00 73 1016.0
20260901062132 16 199 0.0 0.0 0.00 0.00 0.00 73 1015.7
20260901061629 16 282 1.6 3.2 0.00 0.00 0.00 73 1015.8
20260901061123 16 230 0.0 0.0 0.00 0.00 0.00 73 1015.8
20260901060618 16 200 3.2 3.2 0.00 0.00 0.00 73 1015.8
20260901060113 16 252 0.0 0.0 0.00 0.00 0.00 73 1016.0
20260901055613 16 250 1.6 3.2 0.00 0.00 0.00 73 1016.1
20260901055110 16 206 1.6 1.6 0.00 0.00 0.00 73 1016.1
20260901054607 16 229 0.0 1.6 0.00 0.00 0.00 73 1016.1
20260901054102 16 252 3.2 3.2 0.00 0.00 0.00 73 1015.9
20260901053558 16 223 0.0 1.6 0.00 0.00 0.00 73 1015.8
20260901053054 16 209 0.0 0.0 0.00 0.00 0.00 74 1016.0
20260901052550 16 260 0.0 1.6 0.00 0.00 0.00 74 1015.9
20260901052049 16 267 3.2 4.8 0.00 0.00 0.00 74 1015.8
20260901051544 16 211 1.6 1.6 0.00 0.00 0.00 75 1016.1
20260901051043 16 230 1.6 1.6 0.00 0.00 0.00 75 1015.9
20260901050538 16 209 0.0 0.0 0.00 0.00 0.00 75 1015.7
20260901050033 15 278 3.2 3.2 0.00 0.00 0.00 76 1015.7
20260901045529 15 226 0.0 1.6 0.00 0.00 0.00 76 1015.8
20260901045028 15 237 1.6 1.6 0.00 0.00 0.00 77 1015.5
20260901044525 15 225 1.6 1.6 0.00 0.00 0.00 76 1015.7
20260901044020 15 255 3.2 3.2 0.00 0.00 0.00 76 1015.6
20260901043515 15 240 3.2 3.2 0.00 0.00 0.00 76 1015.5
20260901043011 15 201 3.2 3.2 0.00 0.00 0.00 76 1015.2
20260901042510 16 263 1.6 3.2 0.00 0.00 0.00 76 1015.5
20260901042006 16 207 0.0 1.6 0.00 0.00 0.00 75 1015.4
20260901041506 16 252 1.6 1.6 0.00 0.00 0.00 75 1015.3
20260901041001 16 205 0.0 0.0 0.00 0.00 0.00 74 1015.4
20260901040456 16 206 3.2 3.2 0.00 0.00 0.00 74 1015.3
20260901035955 16 232 4.8 4.8 0.00 0.00 0.00 74 1015.5
20260901035454 16 272 4.8 9.7 0.00 0.00 0.00 75 1015.3
20260901034953 16 284 6.4 9.7 0.00 0.00 0.00 75 1015.2
20260901034452 16 299 3.2 4.8 0.00 0.00 0.00 75 1015.2
20260901033947 16 287 3.2 4.8 0.00 0.00 0.00 76 1015.2
20260901033446 16 208 1.6 3.2 0.00 0.00 0.00 76 1015.0
20260901032945 16 211 1.6 1.6 0.00 0.00 0.00 76 1014.9
20260901032440 16 271 3.2 4.8 0.00 0.00 0.00 75 1014.9
20260901031935 16 227 1.6 3.2 0.00 0.00 0.00 74 1014.7
20260901031431 16 245 1.6 3.2 0.00 0.00 0.00 74 1014.7
20260901030930 16 296 3.2 4.8 0.00 0.00 0.00 74 1014.7
20260901030426 16 286 3.2 3.2 0.00 0.00 0.00 73 1014.7
20260901025925 16 221 1.6 3.2 0.00 0.00 0.00 73 1014.5
20260901025421 17 197 3.2 4.8 0.00 0.00 0.00 73 1014.4
20260901024919 17 227 4.8 6.4 0.00 0.00 0.00 73 1014.6
20260901024414 17 261 3.2 3.2 0.00 0.00 0.00 73 1014.4
20260901023913 17 298 6.4 6.4 0.00 0.00 0.00 72 1014.4
20260901023407 17 193 0.0 1.6 0.00 0.00 0.00 72 1014.3
20260901022903 17 259 4.8 4.8 0.00 0.00 0.00 72 1014.5
20260901022359 17 312 4.8 6.4 0.00 0.00 0.00 71 1014.5
20260901021853 17 293 3.2 3.2 0.00 0.00 0.00 71 1014.5
20260901021349 17 246 1.6 3.2 0.00 0.00 0.00 71 1014.5
20260901020844 17 245 3.2 4.8 0.00 0.00 0.00 71 1014.4
20260901020339 18 237 4.8 4.8 0.00 0.00 0.00 70 1014.4
20260901015833 18 271 6.4 6.4 0.00 0.00 0.00 69 1014.4
20260901015329 18 307 3.2 3.2 0.00 0.00 0.00 69 1014.3
20260901014828 18 218 1.6 3.2 0.00 0.00 0.00 69 1014.3
20260901014325 18 294 3.2 4.8 0.00 0.00 0.00 67 1014.4
20260901013820 19 285 3.2 3.2 0.00 0.00 0.00 66 1014.3
20260901013315 19 240 3.2 4.8 0.00 0.00 0.00 65 1014.3
20260901012810 20 229 4.8 6.4 0.00 0.00 0.00 64 1014.3
20260901012306 19 271 6.4 6.4 0.00 0.00 0.00 66 1014.3
20260901011801 20 17 4.8 6.4 0.00 0.00 0.00 65 1014.4
20260901011256 20 340 6.4 9.7 0.00 0.00 0.00 65 1014.5
20260901010750 20 292 8.0 14.5 0.00 0.00 0.00 64 1014.3
20260901010245 20 352 6.4 6.4 0.00 0.00 0.00 66 1014.4
20260901005743 20 310 6.4 6.4 0.00 0.00 0.00 64 1014.5
20260901005238 20 276 3.2 4.8 0.00 0.00 0.00 63 1014.3
20260901004733 20 296 6.4 11.3 0.00 0.00 0.00 65 1014.3
20260901004227 20 49 3.2 3.2 0.00 0.00 0.00 63 1014.3
20260901003722 20 299 9.7 12.9 0.00 0.00 0.00 62 1014.5
20260901003221 20 269 3.2 3.2 0.00 0.00 0.00 62 1014.4
20260901002715 21 338 9.7 14.5 0.00 0.00 0.00 61 1014.4
20260901002210 20 202 8.0 12.9 0.00 0.00 0.00 61 1014.4
20260901001706 20 258 3.2 4.8 0.00 0.00 0.00 62 1014.3
20260901001200 21 329 8.0 11.3 0.00 0.00 0.00 60 1014.1
20260901000655 21 329 6.4 9.7 0.00 0.00 0.00 60 1014.4
20260901000150 21 3 11.3 14.5 0.00 0.00 0.00 60 1014.7
20260831235644 21 297 4.8 4.8 0.00 0.00 0.00 60 1014.5
20260831235140 21 346 6.4 11.3 0.00 0.00 0.00 60 1014.5
20260831234639 21 215 3.2 4.8 0.00 0.00 0.00 60 1014.4
20260831234135 21 34 6.4 6.4 0.00 0.00 0.00 60 1014.5
20260831233630 22 237 14.5 22.5 0.00 0.00 0.00 60 1014.7
20260831233126 21 335 6.4 11.3 0.00 0.00 0.00 59 1014.4
20260831232621 22 301 11.3 12.9 0.00 0.00 0.00 59 1014.6
20260831232116 21 255 3.2 3.2 0.00 0.00 0.00 60 1014.6
20260831231612 22 339 6.4 6.4 0.00 0.00 0.00 60 1014.6
20260831231107 22 349 3.2 3.2 0.00 0.00 0.00 59 1014.6
20260831230558 22 178 4.8 6.4 0.00 0.00 0.00 59 1014.7
20260831230058 22 89 4.8 6.4 0.00 0.00 0.00 58 1014.6
20260831225553 22 59 3.2 3.2 0.00 0.00 0.00 59 1014.5
20260831225047 22 166 1.6 1.6 0.00 0.00 0.00 59 1014.7
20260831224542 23 86 6.4 9.7 0.00 0.00 0.00 57 1014.6
20260831224038 22 74 8.0 11.3 0.00 0.00 0.00 59 1014.5
20260831223533 22 357 8.0 11.3 0.00 0.00 0.00 59 1014.7
20260831223029 23 11 12.9 16.1 0.00 0.00 0.00 56 1014.5
20260831222525 23 292 4.8 4.8 0.00 0.00 0.00 54 1014.8
20260831222025 22 18 6.4 9.7 0.00 0.00 0.00 57 1014.8
20260831221521 23 299 14.5 17.7 0.00 0.00 0.00 56 1014.9
20260831221016 23 304 3.2 3.2 0.00 0.00 0.00 56 1014.8
20260831220511 23 299 6.4 6.4 0.00 0.00 0.00 54 1014.8
20260831220006 23 326 6.4 6.4 0.00 0.00 0.00 57 1014.8
20260831215502 23 100 4.8 6.4 0.00 0.00 0.00 58 1014.9
20260831214957 24 322 6.4 6.4 0.00 0.00 0.00 54 1015.1
20260831214455 24 253 3.2 3.2 0.00 0.00 0.00 53 1015.0
20260831213950 23 241 3.2 3.2 0.00 0.00 0.00 54 1015.1
20260831213447 23 310 8.0 11.3 0.00 0.00 0.00 54 1015.2
20260831212947 24 341 8.0 11.3 0.00 0.00 0.00 54 1015.4
20260831212443 23 291 1.6 3.2 0.00 0.00 0.00 55 1015.4
20260831211942 23 339 4.8 6.4 0.00 0.00 0.00 55 1015.3
20260831211438 23 321 6.4 9.7 0.00 0.00 0.00 54 1015.3
20260831210937 23 171 1.6 1.6 0.00 0.00 0.00 57 1015.3
20260831210427 23 297 3.2 4.8 0.00 0.00 0.00 57 1015.5
20260831205923 24 270 3.2 3.2 0.00 0.00 0.00 55 1015.4
20260831205418 23 313 0.0 0.0 0.00 0.00 0.00 55 1015.6
20260831204913 22 226 3.2 4.8 0.00 0.00 0.00 58 1015.6
20260831204412 22 353 0.0 0.0 0.00 0.00 0.00 60 1015.5
20260831203911 22 38 1.6 1.6 0.00 0.00 0.00 60 1015.6
20260831203406 23 176 1.6 1.6 0.00 0.00 0.00 59 1015.5
20260831202904 21 220 0.0 1.6 0.00 0.00 0.00 63 1015.8
20260831202400 22 325 3.2 3.2 0.00 0.00 0.00 59 1015.7
20260831201859 22 281 3.2 4.8 0.00 0.00 0.00 62 1015.6
20260831201358 21 355 3.2 3.2 0.00 0.00 0.00 61 1015.7
20260831200854 22 335 3.2 4.8 0.00 0.00 0.00 60 1015.6
20260831200349 23 11 6.4 9.7 0.00 0.00 0.00 56 1015.6
20260831195844 23 325 1.6 3.2 0.00 0.00 0.00 56 1015.5
20260831195340 22 199 1.6 3.2 0.00 0.00 0.00 60 1015.5
20260831194835 22 356 3.2 4.8 0.00 0.00 0.00 59 1015.8
20260831194330 22 186 1.6 3.2 0.00 0.00 0.00 59 1015.6
20260831193829 21 341 1.6 3.2 0.00 0.00 0.00 61 1016.0
20260831193324 21 229 6.4 6.4 0.00 0.00 0.00 60 1015.9
20260831192820 22 300 1.6 1.6 0.00 0.00 0.00 59 1016.0
20260831192315 21 334 6.4 6.4 0.00 0.00 0.00 61 1016.0
20260831191811 21 302 4.8 6.4 0.00 0.00 0.00 60 1016.0
20260831191307 20 211 1.6 3.2 0.00 0.00 0.00 63 1015.9
20260831190802 21 342 4.8 9.7 0.00 0.00 0.00 62 1015.8
20260831190302 20 317 3.2 4.8 0.00 0.00 0.00 62 1015.9
20260831185756 21 323 3.2 3.2 0.00 0.00 0.00 61 1015.8
20260831185252 21 193 1.6 3.2 0.00 0.00 0.00 61 1015.9
20260831184750 21 193 6.4 9.7 0.00 0.00 0.00 62 1015.9
20260831184246 20 197 9.7 11.3 0.00 0.00 0.00 62 1016.2
20260831183742 20 323 1.6 4.8 0.00 0.00 0.00 64 1016.1
20260831183236 20 273 3.2 3.2 0.00 0.00 0.00 66 1016.2
20260831182735 20 288 1.6 3.2 0.00 0.00 0.00 65 1016.2
20260831182230 19 218 3.2 4.8 0.00 0.00 0.00 65 1016.2
20260831181730 20 303 3.2 4.8 0.00 0.00 0.00 65 1016.3
20260831181226 18 200 1.6 1.6 0.00 0.00 0.00 68 1016.2
20260831180720 19 285 3.2 4.8 0.00 0.00 0.00 67 1016.1
20260831180215 19 211 1.6 3.2 0.00 0.00 0.00 66 1016.3